Location: Bamobli
(6.6379°N, 10.9396°W)
Time: 23:50:42
(UTC+00:00)

Envisat - Visible Passes

Search period start: 05 March 2021 00:00
Search period end: 15 March 2021 00:00
Orbit: 764 x 766 km, 98.1° (Epoch: 05 March)

Date Brightness Start Highest point End Pass type
(mag) Time Alt. Az. Time Alt. Az. Time Alt. Az.
05 Mar 4.3 05:37:32 10° NNE 05:42:17 41° ESE 05:47:02 10° S visible
06 Mar 6.0 05:02:49 10° ENE 05:05:31 15° E 05:08:14 10° SE visible
07 Mar 3.0 06:02:33 10° NNE 06:07:37 87° ESE 06:12:41 10° S visible
08 Mar 4.9 05:26:29 10° NE 05:30:53 30° E 05:35:17 10° SSE visible
09 Mar 6.3 04:53:42 10° E 04:54:07 10° E 04:54:31 10° ESE visible
09 Mar 3.3 06:28:07 10° N 06:32:56 44° WNW 06:37:45 10° SSW visible
10 Mar 3.5 05:51:13 10° NNE 05:56:13 63° ESE 06:01:14 10° S visible
11 Mar 5.4 05:15:35 10° NE 05:19:28 22° E 05:23:21 10° SSE visible
12 Mar 3.0 06:16:33 10° N 06:21:32 62° WNW 06:26:32 10° SSW visible
13 Mar 4.1 05:39:58 10° NNE 05:44:48 46° ESE 05:49:39 10° S visible
14 Mar 5.9 05:04:58 10° ENE 05:08:03 16° E 05:11:08 10° SE visible
